This demonstration page uses our WeatherBlox Daily Observations layout. Learn more.

Left ArrowRight Arrow

34.16533, -84.80231

Hourly Observations for June 23, 2019

Temp ( °F °C ) Dew Point ( °F °C ) Humidity (%) Winds ( mph kmh ) Pressure ( in mb ) Visibility ( mi km ) Precip ( " mm )
1:53 am 01:53 Clear 69 20.6 63 17.2 81 81 SW 3 6 30.01 1016 10 16 0.00 0.00
2:53 am 02:53 Clear 69 20.6 64 17.8 84 84 Calm 30.01 1016 10 16 0.00 0.00
3:53 am 03:53 Clear 67 19.4 64 17.8 91 91 Calm 30.01 1016 10 16 0.00 0.00
4:53 am 04:53 Mostly Cloudy 66 18.9 64 17.8 93 93 S 3 6 30.03 1017 10 16 0.00 0.00
5:53 am 05:53 Cloudy 68 20 65 18.3 90 90 Calm 30.05 1018 10 16 0.00 0.00
6:53 am 06:53 Partly Cloudy 66 18.9 64 17.8 93 93 Calm 30.06 1018 10 16 0.00 0.00
7:53 am 07:53 Mostly Cloudy 70 21.1 66 18.9 87 87 Calm 30.06 1018 10 16 0.00 0.00
8:53 am 08:53 Mostly Cloudy 74 23.3 67 19.4 79 79 Calm 30.08 1019 10 16 0.00 0.00
9:53 am 09:53 Partly Cloudy 77 25 67 19.4 71 71 Calm 30.09 1019 10 16 0.00 0.00
10:53 am 10:53 Mostly Cloudy 80 26.7 68 20 67 67 VRB 3 6 30.07 1018 10 16 0.00 0.00
11:53 am 11:53 Mostly Sunny 83 28.3 68 20 61 61 VRB 5 7 30.07 1018 10 16 0.00 0.00
12:53 pm 12:53 Sunny with Nearby Thunderstorms 88 31.1 73 22.8 61 61 VRB 3 6 30.04 1017 10 16 0.00 0.00
1:36 pm 13:36 Mostly Cloudy 86 30 73 22.8 65 65 SSW 6 9 30.03 1017 10 16 0.00 0.00
1:53 pm 13:53 Partly Cloudy with Thunderstorms 88 31.1 73 22.8 61 61 S 8 13 30.02 1017 10 16 0.00 0.00
2:20 pm 14:20 Partly Cloudy with Nearby Thunderstorms 89 31.7 73 22.8 59 59 VRB 5 7 30.01 1016 10 16 0.00 0.00
2:44 pm 14:44 Partly Cloudy with Thunderstorms 84 28.9 70 21.1 63 63 E 5 7 30.02 1017 10 16 0.00 0.00
2:53 pm 14:53 Mostly Cloudy with Thunderstorms 83 28.3 71 21.7 67 67 VRB 6 9 30.03 1017 10 16 0.00 0.03
3:10 pm 15:10 Mostly Cloudy with Light Rain 81 27.2 70 21.1 69 69 S 6 9 30.00 1016 6 10 0.01 0.25
3:53 pm 15:53 Sunny 87 30.6 71 21.7 59 59 S 5 7 30.00 1016 10 16 0.01 0.25
4:53 pm 16:53 Sunny 90 32.2 73 22.8 58 58 VRB 6 9 29.97 1015 10 16 0.00 0.00
5:53 pm 17:53 Mostly Sunny 90 32.2 72 22.2 56 56 VRB 7 11 29.95 1014 10 16 0.00 0.00
6:53 pm 18:53 Sunny 89 31.7 70 21.1 53 53 S 6 9 29.94 1014 10 16 0.00 0.00
7:53 pm 19:53 Sunny 87 30.6 71 21.7 59 59 SSW 5 7 29.94 1014 10 16 0.00 0.00
8:53 pm 20:53 Sunny 83 28.3 71 21.7 67 67 S 5 7 29.94 1014 10 16 0.00 0.00
9:53 pm 21:53 Clear 79 26.1 71 21.7 77 77 Calm 29.95 1014 10 16 0.00 0.00
10:53 pm 22:53 Clear 77 25 71 21.7 82 82 Calm 29.97 1015 10 16 0.00 0.00
11:53 pm 23:53 Clear 75 23.9 72 22.2 90 90 Calm 29.96 1015 10 16 0.00 0.00

Powered by AerisWeather